Regional Weather Roundup
Issued by NWS

Home | Current Version | Previous Version | Graphics & Text | Print | Product List | Glossary On
Versions: 1 2 3 4 5 6 7 8 9 10 11 12 13 14 15 16 17 18 19 20 21 22 23 24 25 26 27 28 29 30 31 32 33 34 35 36 37 38 39 40 41 42 43 44 45 46 47 48 49 50
482
ASUS45 KBOU 242307
RWRCO

WEATHER ROUNDUP FOR COLORADO
NATIONAL WEATHER SERVICE DENVER/BOULDER CO
500 PM MDT MON JUL 24 2017

NOTE: "FAIR" INDICATES FEW OR NO CLOUDS BELOW 12000 FEET WITH NO
SIGNIFICANT WEATHER AND/OR OBSTRUCTIONS TO VISIBILITY.

COZ001>005-013-030-031-250000-
...NORTHWEST COLORADO...

CITY           SKY/WX    TMP DP  RH WIND       PRES   REMARKS
CRAIG          FAIR      90  35  14 W3        30.08F
HAYDEN         FAIR     N/A N/A N/A E3        30.12F
MEEKER         FAIR      87  38  17 W6        30.11F
RABBIT EARS PA FAIR      70  36  28 CALM      30.50F
STEAMBOAT SPGS FAIR      86  38  18 N6        30.15F
WALDEN         FAIR      79  32  18 N6        30.28S
$$

COZ006>008-011-250000-
...WEST CENTRAL VALLEYS...

CITY           SKY/WX    TMP DP  RH WIND       PRES   REMARKS
GRAND JUNCTION FAIR      93  48  21 W9        29.97F
MONTROSE       FAIR      89  47  23 SW7       30.06F
EAGLE          MOSUNNY   88  41  19 W7        30.12F
RIFLE          FAIR      92  33  12 N3        30.02F
DELTA          FAIR      94  40  15 S8        30.01F
NUCLA          FAIR      88  45  22 S14G23    30.12S
$$

COZ017>023-064>068-250000-
...SOUTHWEST COLORADO...

CITY           SKY/WX    TMP DP  RH WIND       PRES   REMARKS
DURANGO        FAIR      81  46  29 CALM      30.16F
CORTEZ         FAIR      89  48  24 VRB7      30.09F
PAGOSA SPRINGS DRIZZLE   69  47  45 NE10G18   30.30S
TELLURIDE      PTSUNNY   67  50  56 E14       30.40S
WOLF CREEK PAS CLOUDY    50  41  71 E5        30.67S
$$

COZ009-010-012-014-032>034-037-058>063-250000-
...CENTRAL COLORADO...

CITY           SKY/WX    TMP DP  RH WIND       PRES   REMARKS
ASPEN          FAIR      85  38  18 NW12      30.21F
BUENA VISTA    PTSUNNY   75  38  26 W10       30.27S
COPPER MTN     CLOUDY    64  30  27 E13       30.63S
BERTHOUD PASS  CLOUDY    54  39  58 SE9       30.68S
COTTONWOOD PAS FAIR      70  32  24 W8G17     30.44S
GUNNISON       FAIR      79  49  34 SE18G28   30.23S
KREMMLING      FAIR      88  27  11 CALM      30.22S
LEADVILLE      CLOUDY    69  36  29 W10       30.40S
MONARCH PASS   PTSUNNY   61  37  41 N14       30.72F
SALIDA         FAIR      83  42  23 S8        30.29F
SUNLIGHT       FAIR      66  34  30 CALM      30.53F
WILKERSON PASS CLOUDY    63  37  39 S7        30.59S
$$

COZ069>075-250000-
...SAN LUIS VALLEY/SANGRE DE CRISTO MOUNTAINS...

CITY           SKY/WX    TMP DP  RH WIND       PRES   REMARKS
ALAMOSA        FAIR      78  48  34 W20       30.24F
DEL NORTE      FAIR      71  47  42 SW14G20   30.30F
LA VETA PASS   NOT AVBL
SAGUACHE         N/A    N/A N/A N/A MISG        N/A
$$

COZ035-036-038>040-250000-
...NORTHERN COLORADO FRONT RANGE...

CITY           SKY/WX    TMP DP  RH WIND       PRES   REMARKS
DENVER INTL AP PTSUNNY   97  31   9 NW8       30.01F
DMNS CITY PARK   N/A     93  37  14 NW9G18    30.01S
AURORA         PTSUNNY   90  46  21 S9        30.04F
FRONT RANGE AP PTSUNNY   93  41  16 E16G25    30.04S
ERIE MUNI ARPT FAIR      96  34  11 NW8       30.01S
BOULDER MUN AP FAIR      93  39  15 N7        30.03S
CENTENNIAL     PTSUNNY   89  45  21 S24       30.06S
BROOMFIELD     FAIR      90  36  14 NW14      30.06S
FORT COLLINS   FAIR      95  42  16 SW7       30.00S
LONGMONT       FAIR      91  44  19 NW5       30.01F
$$

COZ041-046-047-076>085-087-088-250000-
...PIKES PEAK/PALMER DIVIDE AND SOUTHERN FOOTHILLS...

CITY           SKY/WX    TMP DP  RH WIND       PRES   REMARKS
COLO. SPRINGS  PTSUNNY   84  49  29 E10       30.13F
A. F. ACADEMY  FAIR      82  46  28 SE8       30.15R
SCHRIEVER AFB  FAIR      82  46  27 NE5       30.14F
CHEYENNE MTN   PTSUNNY   79  47  32 NE3       30.15S
ELLICOTT       NOT AVBL
FALCON           N/A     82  44  26 SE7       30.21S
FORT CARSON    FAIR      89  46  23 NE3       30.09F
LIMON          FAIR      89  49  25 S16G25    30.06S
MONUMENT HILL  FAIR      77  46  33 S13       30.21F
CANON CITY     SUNNY     91  54  27 E9        30.03F
WALSENBURG     MOCLDY    90  39  17 NE8       30.10S
TRINIDAD       FAIR      91  38  15 SE7G18    30.08F
$$

COZ042>045-048>051-090-091-250000-
...NORTHEAST COLORADO...

CITY           SKY/WX    TMP DP  RH WIND       PRES   REMARKS
GREELEY ARPT   FAIR      95  47  19 W8        29.97S
AKRON          FAIR      96  45  17 S14       29.97F
BURLINGTON     FAIR      93  57  29 S15G26    30.00F
WRAY           NOT AVBL
YUMA           NOT AVBL
STERLING       FAIR      91  46  21 SW17G30   29.90S
HOLYOKE        FAIR      95  54  24 S15       29.92S
FORT MORGAN    FAIR      99  42  13 SE14      29.94F
$$

COZ086-089-092>099-250000-
...SOUTHEAST COLORADO...

CITY           SKY/WX    TMP DP  RH WIND       PRES   REMARKS
PUEBLO         FAIR      96  47  18 SE13      29.97F
LA JUNTA       FAIR      96  54  24 SE13G24   29.96F
LAMAR          FAIR      95  54  25 S16       29.94F
SPRINGFIELD      N/A     90  57  32 SE21G28   30.01F
$$




USA.gov is the U.S. government's official web portal to all federal, state and local government web resources and services.